,,Stat6,,Stat2,,Stat8,,Stat9,,Stat10,,Wind1,,Wind1,
time,status,PA1M_AVG,status,PR1M_SUM,status,RH1M_AVG,status,SR1M_AVG,status,TA1M_AVG,status,W1dAve1m,status,W1sAve1m,
2004-10-22, 00:00:01,VALID,917.485,VALID,0,VALID,99.0911,VALID,-0.0169808,VALID,20.1282,VALID,210,VALID,0.0133929,
2004-10-22, 00:01:01,VALID,917.447,VALID,0,VALID,99.1902,VALID,-0.0849042,VALID,20.1161,VALID,210,VALID,0.0569196,
2004-10-22, 00:02:01,VALID,917.42,VALID,0,VALID,99.236,VALID,-0.0679233,VALID,20.1258,VALID,210,VALID,0.00228659,
2004-10-22, 00:03:01,VALID,917.403,VALID,0,VALID,99.2424,VALID,-0.101885,VALID,20.1191,VALID,210,VALID,0,
2004-10-22, 00:04:01,VALID,917.384,VALID,0,VALID,99.2246,VALID,-0.0509425,VALID,20.1255,VALID,208,VALID,0.0572917,
2004-10-22, 00:05:01,VALID,917.359,VALID,0,VALID,98.9995,VALID,-0.0849042,VALID,20.1357,VALID,156,VALID,1.07363,
2004-10-22, 00:06:01,VALID,917.343,VALID,0,VALID,98.2098,VALID,-0.101885,VALID,20.1027,VALID,113,VALID,0.955798,
2004-10-22, 00:07:01,VALID,917.315,VALID,0,VALID,97.8093,VALID,-0.0509425,VALID,20.1158,VALID,114,VALID,0.80069,
2004-10-22, 00:08:01,VALID,917.29,VALID,0,VALID,97.6185,VALID,-0.0509425,VALID,20.1322,VALID,117,VALID,0.503348,
2004-10-22, 00:09:01,VALID,917.251,VALID,0,VALID,97.2065,VALID,-0.0509425,VALID,20.1384,VALID,100,VALID,0.840892,
2004-10-22, 00:10:01,VALID,917.216,VALID,0,VALID,97.143,VALID,-0.0509425,VALID,20.1546,VALID,100,VALID,0.618359,
2004-10-22, 00:11:01,VALID,917.159,VALID,0,VALID,97.0819,VALID,-0.0169808,VALID,20.1645,VALID,100,VALID,0.714208,
2004-10-22, 00:12:01,VALID,917.128,VALID,0,VALID,96.8556,VALID,-0.0339617,VALID,20.1509,VALID,106,VALID,0.553354,
2004-10-22, 00:13:01,VALID,917.098,VALID,0.2,VALID,96.7208,VALID,-0.0679233,VALID,20.1675,VALID,99,VALID,0.787109,
2004-10-22, 00:14:01,VALID,917.053,VALID,0,VALID,96.6954,VALID,-0.101885,VALID,20.1799,VALID,99,VALID,0.449128,
2004-10-22, 00:15:01,VALID,917.039,VALID,0,VALID,96.6534,VALID,0,VALID,20.1891,VALID,115,VALID,0.52689,
2004-10-22, 00:16:01,VALID,917.013,VALID,0,VALID,97.0323,VALID,0,VALID,20.2023,VALID,145,VALID,0.394804,
2004-10-22, 00:17:00,VALID,916.972,VALID,0,VALID,97.1671,VALID,0,VALID,20.212,VALID,163,VALID,0.0922619,
2004-10-22, 00:18:00,VALID,916.944,VALID,0,VALID,97.0527,VALID,-0.0169808,VALID,20.2192,VALID,152,VALID,0.225472,
2004-10-22, 00:19:00,VALID,916.91,VALID,0,VALID,97.1099,VALID,-0.0509425,VALID,20.2224,VALID,135,VALID,0.182528,
2004-10-22, 00:20:00,VALID,916.888,VALID,0,VALID,97.1875,VALID,-0.0169808,VALID,20.2351,VALID,137,VALID,0.18859,
2004-10-22, 00:21:00,VALID,916.864,VALID,0,VALID,96.8619,VALID,0,VALID,20.2187,VALID,163,VALID,0.46657,
2004-10-22, 00:22:00,VALID,916.839,VALID,0,VALID,96.5593,VALID,-0.0169808,VALID,20.2122,VALID,165,VALID,0.596354,
2004-10-22, 00:23:00,VALID,916.821,VALID,0,VALID,96.6699,VALID,-0.0169808,VALID,20.2351,VALID,216,VALID,0.306212,
2004-10-22, 00:24:00,VALID,916.795,VALID,0,VALID,96.5517,VALID,0,VALID,20.2448,VALID,237,VALID,0.539825,
2004-10-22, 00:25:00,VALID,916.769,VALID,0,VALID,96.544,VALID,0,VALID,20.2472,VALID,307,VALID,1.00242,
2004-10-22, 00:26:00,VALID,916.753,VALID,0,VALID,96.7297,VALID,0,VALID,20.1901,VALID,263,VALID,1.14807,
2004-10-22, 00:27:00,VALID,916.764,VALID,0,VALID,97.2205,VALID,0,VALID,20.1285,VALID,238,VALID,0.768895,
2004-10-22, 00:28:00,VALID,916.794,VALID,0,VALID,97.6948,VALID,0,VALID,20.0863,VALID,186,VALID,0.740498,
2004-10-22, 00:29:00,VALID,916.783,VALID,0,VALID,97.7838,VALID,-0.0169808,VALID,20.051,VALID,192,VALID,0.329055,
2004-10-22, 00:30:00,VALID,916.797,VALID,0,VALID,97.485,VALID,-0.0169808,VALID,20.0241,VALID,106,VALID,0.451079,
2004-10-22, 00:31:00,VALID,916.795,VALID,0,VALID,97.5155,VALID,0,VALID,20.0704,VALID,323,VALID,0.359189,
2004-10-22, 00:32:00,VALID,916.822,VALID,0,VALID,97.602,VALID,0,VALID,20.0957,VALID,267,VALID,0.137835,
2004-10-22, 00:33:00,VALID,916.829,VALID,0,VALID,97.6948,VALID,-0.0169808,VALID,20.0957,VALID,267,VALID,0.00190549,
2004-10-22, 00:34:00,VALID,916.845,VALID,0,VALID,97.85,VALID,-0.0169808,VALID,20.083,VALID,239,VALID,0.255903,
2004-10-22, 00:35:00,VALID,916.846,VALID,0,VALID,98.1691,VALID,0,VALID,20.0701,VALID,242,VALID,0.490885,
2004-10-22, 00:36:00,VALID,916.848,VALID,0,VALID,98.4222,VALID,0.0169808,VALID,20.0082,VALID,249,VALID,0.356136,
2004-10-22, 00:37:00,VALID,916.841,VALID,0,VALID,98.777,VALID,0,VALID,19.9958,VALID,268,VALID,0.490659,
2004-10-22, 00:38:00,VALID,916.836,VALID,0,VALID,99.0822,VALID,0,VALID,19.9606,VALID,254,VALID,0.4913,
2004-10-22, 00:39:00,VALID,916.825,VALID,0,VALID,99.2627,VALID,-0.0339617,VALID,19.9312,VALID,253,VALID,0.221354,
2004-10-22, 00:40:00,VALID,916.813,VALID,0,VALID,99.4725,VALID,0,VALID,19.9114,VALID,329,VALID,0.0887277,
2004-10-22, 00:41:00,VALID,916.797,VALID,0,VALID,99.6938,VALID,0,VALID,19.9243,VALID,357,VALID,0.828497,
2004-10-22, 00:42:00,VALID,916.772,VALID,0,VALID,99.5666,VALID,-0.0169808,VALID,19.9124,VALID,342,VALID,1.07254,
2004-10-22, 00:43:00,VALID,916.758,VALID,0,VALID,99.4573,VALID,0,VALID,19.9091,VALID,155,VALID,1.21019,
2004-10-22, 00:44:00,VALID,916.745,VALID,0,VALID,98.0712,VALID,-0.0169808,VALID,19.8796,VALID,76,VALID,2.04066,
2004-10-22, 00:45:00,VALID,916.751,VALID,0,VALID,94.8592,VALID,-0.0169808,VALID,20.0671,VALID,106,VALID,2.73456,
2004-10-22, 00:46:00,VALID,916.764,VALID,0,VALID,93.9601,VALID,-0.0169808,VALID,20.3094,VALID,69,VALID,1.92467,
2004-10-22, 00:47:00,VALID,916.754,VALID,0,VALID,94.0568,VALID,-0.0339617,VALID,20.3869,VALID,71,VALID,1.38867,
2004-10-22, 00:48:00,VALID,916.699,VALID,0,VALID,93.7541,VALID,0,VALID,20.3966,VALID,60,VALID,1.9941,
2004-10-22, 00:49:00,VALID,916.708,VALID,0,VALID,93.2836,VALID,-0.0169808,VALID,20.4216,VALID,86,VALID,1.74647,
2004-10-22, 00:50:00,VALID,916.716,VALID,0,VALID,93.4464,VALID,0,VALID,20.4644,VALID,44,VALID,1.64577,
2004-10-22, 00:51:00,VALID,916.712,VALID,0,VALID,93.0077,VALID,0,VALID,20.4579,VALID,82,VALID,2.40644,
2004-10-22, 00:52:00,VALID,916.658,VALID,0,VALID,91.6064,VALID,-0.0169808,VALID,20.5126,VALID,82,VALID,3.5,
2004-10-22, 00:53:00,VALID,916.683,VALID,0,VALID,91.4881,VALID,-0.0169808,VALID,20.6582,VALID,40,VALID,2.76277,
2004-10-22, 00:54:00,VALID,916.666,VALID,0,VALID,90.5471,VALID,0,VALID,20.7354,VALID,42,VALID,3.7074,
2004-10-22, 00:55:00,VALID,916.635,VALID,0,VALID,89.423,VALID,-0.0169808,VALID,20.8714,VALID,58,VALID,3.83789,
2004-10-22, 00:56:00,VALID,916.648,VALID,0,VALID,89.2743,VALID,-0.0339617,VALID,20.9551,VALID,68,VALID,3.19327,
2004-10-22, 00:57:00,VALID,916.652,VALID,0,VALID,89.8529,VALID,0,VALID,20.9551,VALID,55,VALID,1.69957,
2004-10-22, 00:58:00,VALID,916.628,VALID,0,VALID,89.5121,VALID,-0.0169808,VALID,20.8902,VALID,66,VALID,1.66627,
2004-10-22, 00:59:00,VALID,916.587,VALID,0,VALID,89.1967,VALID,0,VALID,20.8746,VALID,68,VALID,2.9899,
2004-10-22, 01:00:00,VALID,916.547,VALID,0,VALID,88.8508,VALID,-0.0169808,VALID,20.9107,VALID,88,VALID,2.99018,
2004-10-22, 01:01:00,VALID,916.53,VALID,0,VALID,88.2621,VALID,0,VALID,20.9459,VALID,71,VALID,3.29883,
2004-10-22, 01:02:00,VALID,916.492,VALID,0,VALID,88.0141,VALID,0,VALID,21.0095,VALID,82,VALID,2.06678,
2004-10-22, 01:03:00,VALID,916.485,VALID,0,VALID,88.2659,VALID,0,VALID,21.0329,VALID,61,VALID,1.27219,
2004-10-22, 01:04:00,VALID,916.443,VALID,0,VALID,88.6321,VALID,0,VALID,20.9836,VALID,56,VALID,1.65678,
2004-10-22, 01:05:00,VALID,916.446,VALID,0,VALID,88.8763,VALID,0,VALID,20.9459,VALID,76,VALID,1.32347,
2004-10-22, 01:06:00,VALID,916.434,VALID,0,VALID,89.4116,VALID,-0.0169808,VALID,20.8838,VALID,67,VALID,1.90492,
2004-10-22, 01:07:00,VALID,916.411,VALID,0,VALID,90.0118,VALID,-0.0169808,VALID,20.8167,VALID,51,VALID,1.9395,
2004-10-22, 01:08:00,VALID,916.398,VALID,0,VALID,90.3768,VALID,-0.0679233,VALID,20.7419,VALID,77,VALID,1.2433,
2004-10-22, 01:09:00,VALID,916.376,VALID,0,VALID,90.584,VALID,-0.0339617,VALID,20.7031,VALID,57,VALID,0.880149,
2004-10-22, 01:10:00,VALID,916.374,VALID,0,VALID,90.743,VALID,-0.0169808,VALID,20.6644,VALID,74,VALID,0.728743,
2004-10-22, 01:11:00,VALID,916.351,VALID,0,VALID,90.7366,VALID,-0.0679233,VALID,20.6326,VALID,60,VALID,1.94277,
2004-10-22, 01:12:00,VALID,916.346,VALID,0,VALID,90.2915,VALID,-0.0169808,VALID,20.6555,VALID,106,VALID,2.07667,
2004-10-22, 01:13:00,VALID,916.324,VALID,0,VALID,90.7264,VALID,-0.0169808,VALID,20.6579,VALID,64,VALID,1.18441,
2004-10-22, 01:14:00,VALID,916.324,VALID,0,VALID,91.0024,VALID,-0.0169808,VALID,20.6291,VALID,97,VALID,1.4464,
2004-10-22, 01:15:00,VALID,916.264,VALID,0,VALID,90.0665,VALID,-0.0169808,VALID,20.6127,VALID,120,VALID,1.66243,
2004-10-22, 01:16:00,VALID,916.263,VALID,0,VALID,90.1504,VALID,-0.0339617,VALID,20.6477,VALID,98,VALID,0.948475,
2004-10-22, 01:17:00,VALID,916.227,VALID,0,VALID,89.9063,VALID,-0.0339617,VALID,20.6838,VALID,87,VALID,1.93857,
2004-10-22, 01:18:00,VALID,916.197,VALID,0,VALID,90.4454,VALID,-0.0169808,VALID,20.7024,VALID,74,VALID,1.41939,
2004-10-22, 01:19:00,VALID,916.172,VALID,0,VALID,90.3259,VALID,0,VALID,20.6733,VALID,101,VALID,1.45684,
2004-10-22, 01:20:00,VALID,916.131,VALID,0,VALID,89.7511,VALID,0,VALID,20.6571,VALID,76,VALID,2.40998,
2004-10-22, 01:21:00,VALID,916.114,VALID,0,VALID,88.9678,VALID,-0.0169808,VALID,20.732,VALID,68,VALID,2.52539,
2004-10-22, 01:22:00,VALID,916.121,VALID,0,VALID,88.9449,VALID,-0.0509425,VALID,20.8092,VALID,64,VALID,1.5245,
2004-10-22, 01:23:00,VALID,916.103,VALID,0,VALID,89.0454,VALID,-0.0339617,VALID,20.8022,VALID,94,VALID,1.14933,
2004-10-22, 01:24:00,VALID,916.092,VALID,0,VALID,89.4726,VALID,-0.0169808,VALID,20.8022,VALID,62,VALID,1.72389,
2004-10-22, 01:25:00,VALID,916.066,VALID,0,VALID,90.0283,VALID,0,VALID,20.7344,VALID,75,VALID,2.14993,
2004-10-22, 01:26:00,VALID,916.043,VALID,0,VALID,90.2788,VALID,0,VALID,20.6862,VALID,37,VALID,1.69204,
2004-10-22, 01:27:00,VALID,916.045,VALID,0,VALID,90.1364,VALID,0,VALID,20.6606,VALID,62,VALID,1.44798,
2004-10-22, 01:28:00,VALID,916.035,VALID,0,VALID,89.6952,VALID,0,VALID,20.6475,VALID,70,VALID,2.02634,
2004-10-22, 01:29:00,VALID,916.014,VALID,0,VALID,89.5171,VALID,0,VALID,20.6604,VALID,112,VALID,1.41615,
2004-10-22, 01:30:00,VALID,916.023,VALID,0,VALID,89.7588,VALID,-0.0169808,VALID,20.6601,VALID,128,VALID,0.871761,
2004-10-22, 01:31:00,VALID,916.056,VALID,0,VALID,90.1021,VALID,0.0169808,VALID,20.6407,VALID,116,VALID,0.945694,
2004-10-22, 01:32:00,VALID,916.085,VALID,0,VALID,90.1262,VALID,-0.0169808,VALID,20.6152,VALID,140,VALID,1.5608,
2004-10-22, 01:33:00,VALID,916.101,VALID,0,VALID,89.8096,VALID,0,VALID,20.5729,VALID,94,VALID,1.55525,
2004-10-22, 01:34:00,VALID,916.125,VALID,0,VALID,88.7326,VALID,-0.0169808,VALID,20.5923,VALID,115,VALID,1.45685,
2004-10-22, 01:35:00,VALID,916.132,VALID,0,VALID,88.8178,VALID,0,VALID,20.6701,VALID,116,VALID,0.727834,
2004-10-22, 01:36:00,VALID,916.138,VALID,0,VALID,88.9602,VALID,0,VALID,20.6956,VALID,162,VALID,0.448633,
2004-10-22, 01:37:00,VALID,916.155,VALID,0,VALID,89.2272,VALID,0,VALID,20.6956,VALID,162,VALID,0.883956,
2004-10-22, 01:38:00,VALID,916.171,VALID,0,VALID,89.3239,VALID,0,VALID,20.6763,VALID,151,VALID,1.02656,
2004-10-22, 01:39:00,VALID,916.19,VALID,0,VALID,89.3251,VALID,-0.0169808,VALID,20.6509,VALID,178,VALID,0.997904,
2004-10-22, 01:40:00,VALID,916.186,VALID,0,VALID,89.6201,VALID,-0.0169808,VALID,20.6216,VALID,171,VALID,1.23698,
2004-10-22, 01:41:00,VALID,916.2,VALID,0,VALID,89.4014,VALID,-0.0339617,VALID,20.5963,VALID,168,VALID,0.94029,
2004-10-22, 01:42:00,VALID,916.185,VALID,0,VALID,89.8656,VALID,-0.0509425,VALID,20.5794,VALID,179,VALID,0.752378,
2004-10-22, 01:43:00,VALID,916.166,VALID,0,VALID,89.6774,VALID,-0.0169808,VALID,20.5541,VALID,179,VALID,0.921693,
2004-10-22, 01:44:00,VALID,916.157,VALID,0,VALID,89.9317,VALID,0,VALID,20.5438,VALID,154,VALID,0.662059,
2004-10-22, 01:45:00,VALID,916.169,VALID,0,VALID,90.2572,VALID,0,VALID,20.5245,VALID,150,VALID,0.872396,
2004-10-22, 01:46:00,VALID,916.159,VALID,0,VALID,90.7023,VALID,-0.0169808,VALID,20.4994,VALID,96,VALID,0.51181,
2004-10-22, 01:47:00,VALID,916.133,VALID,0,VALID,91.0393,VALID,-0.0169808,VALID,20.4668,VALID,79,VALID,0.0325521,
2004-10-22, 01:48:00,VALID,916.106,VALID,0,VALID,90.4302,VALID,0,VALID,20.4179,VALID,164,VALID,1.13408,
2004-10-22, 01:49:00,VALID,916.102,VALID,0,VALID,90.2292,VALID,-0.0169808,VALID,20.3985,VALID,151,VALID,1.30004,
2004-10-22, 01:50:00,VALID,916.094,VALID,0,VALID,89.6888,VALID,0,VALID,20.392,VALID,147,VALID,1.37091,
2004-10-22, 01:51:00,VALID,916.083,VALID,0,VALID,89.6494,VALID,-0.0339617,VALID,20.4211,VALID,140,VALID,1.21307,
2004-10-22, 01:52:00,VALID,916.062,VALID,0,VALID,90.0627,VALID,0,VALID,20.447,VALID,100,VALID,0.623698,
2004-10-22, 01:53:00,VALID,916.059,VALID,0,VALID,90.2521,VALID,-0.0169808,VALID,20.4373,VALID,47,VALID,0.666903,
2004-10-22, 01:54:00,VALID,916.046,VALID,0,VALID,88.8915,VALID,0.0169808,VALID,20.4216,VALID,81,VALID,1.33092,
2004-10-22, 01:55:00,VALID,916.043,VALID,0,VALID,88.8356,VALID,0,VALID,20.4795,VALID,90,VALID,0.545455,
2004-10-22, 01:56:00,VALID,916.055,VALID,0,VALID,89.3277,VALID,0,VALID,20.5053,VALID,119,VALID,1.17541,
2004-10-22, 01:57:00,VALID,916.026,VALID,0,VALID,89.5998,VALID,0,VALID,20.4656,VALID,121,VALID,1.22247,
2004-10-22, 01:58:00,VALID,916.016,VALID,0,VALID,90.0194,VALID,0,VALID,20.4407,VALID,123,VALID,1.16502,
2004-10-22, 01:59:00,VALID,915.996,VALID,0,VALID,90.0576,VALID,0,VALID,20.4119,VALID,146,VALID,1.12519,
2004-10-22, 02:00:00,VALID,915.982,VALID,0,VALID,90.6006,VALID,-0.0509425,VALID,20.3546,VALID,94,VALID,1.1375,
2004-10-22, 02:01:00,VALID,915.968,VALID,0,VALID,90.3666,VALID,-0.101885,VALID,20.3128,VALID,103,VALID,0.899346,
2004-10-22, 02:02:00,VALID,915.955,VALID,0,VALID,90.4976,VALID,-0.101885,VALID,20.3228,VALID,121,VALID,0.605374,
2004-10-22, 02:03:00,VALID,915.944,VALID,0,VALID,90.4085,VALID,-0.101885,VALID,20.3292,VALID,131,VALID,0.934593,
2004-10-22, 02:04:00,VALID,915.921,VALID,0,VALID,90.4658,VALID,-0.0849042,VALID,20.326,VALID,147,VALID,0.828711,
2004-10-22, 02:05:00,VALID,915.914,VALID,0,VALID,90.6578,VALID,-0.0849042,VALID,20.3158,VALID,139,VALID,0.436592,
2004-10-22, 02:06:00,VALID,915.909,VALID,0,VALID,90.9401,VALID,-0.0849042,VALID,20.3228,VALID,141,VALID,0.592842,
2004-10-22, 02:07:00,VALID,915.913,VALID,0,VALID,91.3368,VALID,-0.101885,VALID,20.2835,VALID,93,VALID,0.740412,
2004-10-22, 02:08:00,VALID,915.911,VALID,0,VALID,91.3432,VALID,-0.118866,VALID,20.2353,VALID,117,VALID,0.637019,
2004-10-22, 02:09:00,VALID,915.899,VALID,0,VALID,90.9706,VALID,-0.101885,VALID,20.213,VALID,130,VALID,0.902071,
2004-10-22, 02:10:00,VALID,915.886,VALID,0,VALID,91.0914,VALID,-0.101885,VALID,20.2222,VALID,116,VALID,0.616016,
2004-10-22, 02:11:00,VALID,915.895,VALID,0,VALID,90.879,VALID,-0.118866,VALID,20.255,VALID,119,VALID,0.795686,
2004-10-22, 02:12:00,VALID,915.893,VALID,0,VALID,90.5128,VALID,-0.101885,VALID,20.2545,VALID,100,VALID,0.948331,
2004-10-22, 02:13:00,VALID,915.877,VALID,0,VALID,90.2534,VALID,-0.101885,VALID,20.294,VALID,114,VALID,0.852307,
2004-10-22, 02:14:00,VALID,915.865,VALID,0,VALID,90.4391,VALID,-0.101885,VALID,20.3258,VALID,126,VALID,1.0923,
2004-10-22, 02:15:00,VALID,915.823,VALID,0,VALID,90.4251,VALID,-0.101885,VALID,20.3352,VALID,141,VALID,1.13361,
2004-10-22, 02:16:00,VALID,915.781,VALID,0,VALID,89.3773,VALID,-0.101885,VALID,20.3417,VALID,112,VALID,1.55214,
2004-10-22, 02:17:00,VALID,915.782,VALID,0,VALID,89.9546,VALID,-0.0849042,VALID,20.4453,VALID,85,VALID,1.44077,
2004-10-22, 02:18:00,VALID,915.776,VALID,0,VALID,90.2674,VALID,-0.0849042,VALID,20.4227,VALID,100,VALID,1.12005,
2004-10-22, 02:19:00,VALID,915.755,VALID,0,VALID,90.1669,VALID,-0.0849042,VALID,20.3712,VALID,94,VALID,0.65516,
2004-10-22, 02:20:00,VALID,915.734,VALID,0,VALID,89.7066,VALID,-0.0679233,VALID,20.3936,VALID,47,VALID,1.56195,
2004-10-22, 02:21:00,VALID,915.717,VALID,0,VALID,89.4955,VALID,-0.0849042,VALID,20.4127,VALID,70,VALID,1.06027,
2004-10-22, 02:22:00,VALID,915.706,VALID,0,VALID,89.6646,VALID,-0.101885,VALID,20.4234,VALID,115,VALID,0.502976,
2004-10-22, 02:23:00,VALID,915.682,VALID,0,VALID,89.9177,VALID,-0.0849042,VALID,20.4033,VALID,35,VALID,0.923295,
2004-10-22, 02:24:00,VALID,915.668,VALID,0,VALID,90.0423,VALID,-0.0849042,VALID,20.3807,VALID,15,VALID,0.355373,
2004-10-22, 02:25:00,VALID,915.654,VALID,0,VALID,89.8834,VALID,-0.0849042,VALID,20.3715,VALID,58,VALID,0.419969,
2004-10-22, 02:26:00,VALID,915.652,VALID,0,VALID,89.9698,VALID,-0.101885,VALID,20.365,VALID,55,VALID,0.854539,
2004-10-22, 02:27:00,VALID,915.639,VALID,0,VALID,90.0054,VALID,-0.0849042,VALID,20.3556,VALID,63,VALID,1.18288,
2004-10-22, 02:28:00,VALID,915.619,VALID,0,VALID,89.3188,VALID,-0.0849042,VALID,20.3394,VALID,84,VALID,1.25957,
2004-10-22, 02:29:00,VALID,915.569,VALID,0,VALID,88.5495,VALID,-0.101885,VALID,20.4068,VALID,32,VALID,2.40017,
2004-10-22, 02:30:00,VALID,915.552,VALID,0,VALID,87.7356,VALID,0.0169808,VALID,20.5312,VALID,33,VALID,1.67424,
2004-10-22, 02:31:00,VALID,915.541,VALID,0,VALID,87.9327,VALID,0.0169808,VALID,20.5756,VALID,43,VALID,1.17989,
2004-10-22, 02:32:00,VALID,915.559,VALID,0,VALID,87.583,VALID,0.0169808,VALID,20.5963,VALID,66,VALID,1.14201,
2004-10-22, 02:33:00,VALID,915.549,VALID,0,VALID,87.1011,VALID,0.0169808,VALID,20.5987,VALID,78,VALID,1.2756,
2004-10-22, 02:34:00,VALID,915.536,VALID,0,VALID,86.2517,VALID,0.0509425,VALID,20.631,VALID,88,VALID,1.22173,
2004-10-22, 02:35:00,VALID,915.542,VALID,0,VALID,85.9541,VALID,0.0169808,VALID,20.7282,VALID,88,VALID,0.926389,
2004-10-22, 02:36:00,VALID,915.543,VALID,0,VALID,86.3191,VALID,0.0509425,VALID,20.7794,VALID,55,VALID,1.02422,
2004-10-22, 02:37:00,VALID,915.536,VALID,0,VALID,86.8786,VALID,0.0679233,VALID,20.7699,VALID,38,VALID,1.46493,
2004-10-22, 02:38:00,VALID,915.541,VALID,0,VALID,86.1995,VALID,0.0169808,VALID,20.7215,VALID,93,VALID,1.87441,
2004-10-22, 02:39:00,VALID,915.53,VALID,0,VALID,85.6082,VALID,0.0509425,VALID,20.7535,VALID,57,VALID,0.904535,
2004-10-22, 02:40:00,VALID,915.518,VALID,0,VALID,85.8664,VALID,0.0509425,VALID,20.8219,VALID,82,VALID,1.05716,
2004-10-22, 02:41:00,VALID,915.514,VALID,0,VALID,86.3102,VALID,0.0339617,VALID,20.8154,VALID,121,VALID,1.38876,
2004-10-22, 02:42:00,VALID,915.513,VALID,0,VALID,86.1525,VALID,0.0169808,VALID,20.7796,VALID,104,VALID,1.31959,
2004-10-22, 02:43:00,VALID,915.513,VALID,0,VALID,87.0706,VALID,0,VALID,20.7602,VALID,77,VALID,1.12773,
2004-10-22, 02:44:00,VALID,915.512,VALID,0,VALID,86.6128,VALID,0.0509425,VALID,20.6854,VALID,75,VALID,1.08576,
2004-10-22, 02:45:00,VALID,915.494,VALID,0,VALID,86.5899,VALID,-0.0679233,VALID,20.6878,VALID,61,VALID,1.18857,
2004-10-22, 02:46:00,VALID,915.5,VALID,0,VALID,86.5073,VALID,-0.0679233,VALID,20.6878,VALID,73,VALID,0.983574,
2004-10-22, 02:47:00,VALID,915.506,VALID,0,VALID,86.6001,VALID,-0.0679233,VALID,20.6977,VALID,146,VALID,0.739099,
2004-10-22, 02:48:00,VALID,915.515,VALID,0,VALID,86.6141,VALID,-0.0679233,VALID,20.694,VALID,154,VALID,0.814276,
2004-10-22, 02:49:00,VALID,915.516,VALID,0,VALID,87.2333,VALID,-0.0339617,VALID,20.7064,VALID,141,VALID,0.30785,
2004-10-22, 02:50:00,VALID,915.51,VALID,0,VALID,87.5144,VALID,-0.0169808,VALID,20.6714,VALID,141,VALID,0.230841,
2004-10-22, 02:51:00,VALID,915.513,VALID,0,VALID,87.9276,VALID,-0.0849042,VALID,20.6299,VALID,141,VALID,0.0545139,
2004-10-22, 02:52:00,VALID,915.527,VALID,0,VALID,88.9526,VALID,-0.0509425,VALID,20.5677,VALID,108,VALID,0.497569,
2004-10-22, 02:53:00,VALID,915.516,VALID,0,VALID,88.3028,VALID,-0.101885,VALID,20.4808,VALID,121,VALID,0.65298,
2004-10-22, 02:54:00,VALID,915.51,VALID,0,VALID,87.7763,VALID,-0.0849042,VALID,20.4418,VALID,165,VALID,1.11528,
2004-10-22, 02:55:00,VALID,915.531,VALID,0,VALID,87.3948,VALID,-0.101885,VALID,20.4773,VALID,180,VALID,1.12779,
2004-10-22, 02:56:00,VALID,915.553,VALID,0,VALID,87.5385,VALID,-0.0509425,VALID,20.5389,VALID,166,VALID,0.696265,
2004-10-22, 02:57:00,VALID,915.555,VALID,0,VALID,88.7567,VALID,-0.0509425,VALID,20.5489,VALID,84,VALID,0.493096,
2004-10-22, 02:58:00,VALID,915.554,VALID,0,VALID,89.3811,VALID,-0.0849042,VALID,20.4577,VALID,82,VALID,0.0404647,
2004-10-22, 02:59:00,VALID,915.57,VALID,0,VALID,89.3582,VALID,-0.0679233,VALID,20.4,VALID,82,VALID,0.296484,
2004-10-22, 03:00:00,VALID,915.589,VALID,0,VALID,88.8864,VALID,-0.0849042,VALID,20.3457,VALID,111,VALID,0.53311,
2004-10-22, 03:01:00,VALID,915.614,VALID,0,VALID,89.6558,VALID,-0.101885,VALID,20.3295,VALID,154,VALID,0.870313,
2004-10-22, 03:02:00,VALID,915.636,VALID,0,VALID,89.9063,VALID,-0.0679233,VALID,20.2805,VALID,165,VALID,0.927885,
2004-10-22, 03:03:00,VALID,915.648,VALID,0,VALID,90.125,VALID,-0.0679233,VALID,20.2289,VALID,166,VALID,0.423921,
2004-10-22, 03:04:00,VALID,915.67,VALID,0,VALID,90.8739,VALID,-0.101885,VALID,20.1772,VALID,40,VALID,0.252493,
2004-10-22, 03:05:00,VALID,915.702,VALID,0,VALID,90.6629,VALID,-0.0849042,VALID,20.1255,VALID,11,VALID,0.180186,
2004-10-22, 03:06:00,VALID,915.714,VALID,0,VALID,89.9495,VALID,-0.0849042,VALID,20.1129,VALID,33,VALID,0.203683,
2004-10-22, 03:07:00,VALID,915.726,VALID,0,VALID,89.4993,VALID,-0.0849042,VALID,20.1583,VALID,161,VALID,0.65191,
2004-10-22, 03:08:00,VALID,915.742,VALID,0,VALID,89.184,VALID,-0.101885,VALID,20.2227,VALID,102,VALID,0.553925,
2004-10-22, 03:09:00,VALID,915.749,VALID,0,VALID,89.0034,VALID,-0.101885,VALID,20.2935,VALID,99,VALID,0.854911,
2004-10-22, 03:10:00,VALID,915.773,VALID,0,VALID,89.8007,VALID,-0.101885,VALID,20.3128,VALID,157,VALID,1.43841,
2004-10-22, 03:11:00,VALID,915.787,VALID,0,VALID,89.9482,VALID,-0.101885,VALID,20.2679,VALID,172,VALID,1.26545,
2004-10-22, 03:12:00,VALID,915.785,VALID,0,VALID,89.938,VALID,-0.0849042,VALID,20.2261,VALID,178,VALID,1.28252,
2004-10-22, 03:13:00,VALID,915.796,VALID,0,VALID,89.9889,VALID,-0.0509425,VALID,20.2199,VALID,172,VALID,1.25191,
2004-10-22, 03:14:00,VALID,915.807,VALID,0,VALID,90.1936,VALID,-0.0509425,VALID,20.2192,VALID,174,VALID,1.07249,
2004-10-22, 03:15:00,VALID,915.829,VALID,0,VALID,90.0894,VALID,0,VALID,20.1958,VALID,163,VALID,0.94093,
2004-10-22, 03:16:00,VALID,915.838,VALID,0,VALID,90.4747,VALID,0,VALID,20.2052,VALID,128,VALID,0.767578,
2004-10-22, 03:17:00,VALID,915.85,VALID,0,VALID,90.8523,VALID,0,VALID,20.1697,VALID,148,VALID,0.69112,
2004-10-22, 03:18:00,VALID,915.842,VALID,0,VALID,90.2712,VALID,0.0169808,VALID,20.1213,VALID,137,VALID,1.14379,
2004-10-22, 03:19:00,VALID,915.845,VALID,0,VALID,89.6875,VALID,0,VALID,20.1568,VALID,137,VALID,0.784108,
2004-10-22, 03:20:00,VALID,915.832,VALID,0,VALID,89.8033,VALID,0,VALID,20.212,VALID,133,VALID,0.548874,
2004-10-22, 03:21:00,VALID,915.822,VALID,0,VALID,90.083,VALID,0,VALID,20.238,VALID,136,VALID,0.731105,
2004-10-22, 03:22:00,VALID,915.817,VALID,0,VALID,90.0499,VALID,0,VALID,20.2117,VALID,146,VALID,0.857955,
2004-10-22, 03:23:00,VALID,915.81,VALID,0,VALID,90.2229,VALID,0,VALID,20.1894,VALID,140,VALID,0.821646,
2004-10-22, 03:24:00,VALID,915.805,VALID,0,VALID,90.4149,VALID,0,VALID,20.1635,VALID,141,VALID,0.668324,
2004-10-22, 03:25:00,VALID,915.806,VALID,0,VALID,90.7163,VALID,0,VALID,20.121,VALID,139,VALID,0.519804,
2004-10-22, 03:26:00,VALID,915.809,VALID,0,VALID,91.0253,VALID,-0.0169808,VALID,20.0629,VALID,122,VALID,0.557986,
2004-10-22, 03:27:00,VALID,915.813,VALID,0,VALID,91.1283,VALID,-0.0339617,VALID,20.0184,VALID,118,VALID,0.788491,
2004-10-22, 03:28:00,VALID,915.827,VALID,0,VALID,91.3775,VALID,-0.0169808,VALID,19.9929,VALID,80,VALID,0.841146,
2004-10-22, 03:29:00,VALID,915.834,VALID,0,VALID,91.2669,VALID,0,VALID,19.9767,VALID,101,VALID,0.616211,
2004-10-22, 03:30:00,VALID,915.859,VALID,0,VALID,91.3305,VALID,0,VALID,19.9797,VALID,134,VALID,0.889863,
2004-10-22, 03:31:00,VALID,915.872,VALID,0,VALID,91.4691,VALID,0,VALID,19.976,VALID,123,VALID,0.58631,
2004-10-22, 03:32:00,VALID,915.861,VALID,0,VALID,91.7653,VALID,-0.0169808,VALID,19.9601,VALID,113,VALID,0.466388,
2004-10-22, 03:33:00,VALID,915.862,VALID,0,VALID,92.082,VALID,0,VALID,19.9183,VALID,96,VALID,0.579055,
2004-10-22, 03:34:00,VALID,915.881,VALID,0,VALID,92.4139,VALID,0,VALID,19.8659,VALID,75,VALID,0.87141,